Accueil
METAR-TAF:

METAR-TAF

Aéroports :

Nevers, France

Aéroport de Nevers-Fourchambault

latitude: 47-00N, longitude: 003-06E, altitude: 180 m

Observation

Le bulletin a été fait il y a 1 heure et 10 minutes, à 07:30 UTC
Vent 6 kt de ouest/nord-ouest, variant entre ouest et nord-ouest
Température 18°C
Humidité 83%
Pression 1021 hPa
Visibilité 10 km ou plus
Nuages épars à une hauteur de 1100 ft

METAR: LFQG 230730Z AUTO 29006KT 260V320 9999 SCT011 18/15 Q1021

Heure: 10:40 (08:40 UTC)


TAF: absent

Observations et prévisions météorologiques de plus de 4000 aéroports (messages METAR et TAF).

Les stations disponibles sont représentées par des disques jaunes et rouges sur la carte.

Passer la souris dessus pour voir le nom de la station.

Cliquer dessus pour voir les observations et prévisions météorologiques.

Pour changer de carte: cliquez sur les boutons verts avec une croix noire pour zoomer, sur le bouton vert avec un tiret pour effectuer un zoom arrière, ou sur les flèches vertes pour les cartes adjacentes.


METAR-TAF: